Regional Weather Roundup
Issued by NWS Goodland, KS

Home | Current Version | Previous Version | Graphics & Text | Print | Product List | Glossary On
Versions: 1 2 3 4 5 6 7 8 9 10 11 12 13 14 15 16 17 18 19 20 21 22 23 24 25 26 27 28 29 30 31 32 33 34 35 36 37 38 39 40 41 42 43 44 45 46 47 48 49 50
000
ASUS43 KGLD 220559
RWRGLD

GOODLAND FORECAST AREA HOURLY WEATHER ROUNDUP
NATIONAL WEATHER SERVICE GOODLAND KS
1100 PM MST TUE NOV 21 2017

...OFFICIAL OBSERVATIONS...

CITY           SKY/WX    TMP DP  RH WIND       PRES   REMARKS
GOODLAND KS    CLOUDY    33  25  72 S12       30.31F
HILL CITY KS   CLOUDY    20  13  74 CALM      30.41S
IMPERIAL NEB   CLOUDY    25  21  85 SE6       30.31F
MCCOOK NEB     CLOUDY    25  16  68 SE5       30.35F
AKRON CO       CLOUDY    34  25  69 SW9       30.26F
BURLINGTON CO  CLOUDY    29  23  78 SW13      30.31F WCI  19
LIMON CO       CLOUDY    30  25  81 SE6       30.32F
$$

...UNOFFICIAL OBSERVATIONS...

CITY           SKY/WX    TMP DP  RH WIND       PRES   REMARKS
LENORA KS        N/A     26  32 100 CALM        N/A
NORTON KS      CLEAR     19   9  63 S5        30.38
SHARON SPRINGS   N/A     28  22  78 S9          N/A
KIT CARSON CO    N/A     27  21  77 CALM        N/A
YUMA CO        FAIR      27  23  86 SW7       30.28F
$$




USA.gov is the U.S. government's official web portal to all federal, state and local government web resources and services.